Location: Newark
(7.0858°N, 171.3717°E)
Time: 17:42:12
(UTC+00:00)

Vanguard 1 Rocket - All Passes

Search period start: 04 December 2020 00:00
Search period end: 14 December 2020 00:00
Orbit: 656 x 4221 km, 34.3° (Epoch: 03 December)

Date Brightness Start Highest point End Pass type
(mag) Time Alt. Az. Time Alt. Az. Time Alt. Az.
04 Dec - 08:00:30 10° SSW 08:13:19 48° SE 08:35:21 10° ENE visible
04 Dec - 10:25:56 10° WSW 10:44:17 73° NW 11:10:59 10° NE visible
04 Dec - 12:58:56 10° W 13:21:07 39° NNW 13:42:48 10° NE visible
04 Dec - 15:40:34 10° NW 16:00:44 29° N 16:14:35 10° NE visible
04 Dec - 18:18:31 10° NW 18:35:29 42° NNE 18:44:36 10° E daylight
04 Dec - 20:51:43 10° WNW 21:03:31 62° SW 21:09:43 10° SE daylight
05 Dec - 06:51:08 10° S 07:00:47 28° SE 07:16:11 10° E visible
05 Dec - 09:13:59 10° SW 09:29:24 85° SE 09:55:25 10° NE visible
05 Dec - 11:43:13 10° W 12:03:47 49° NNW 12:28:29 10° NE visible
05 Dec - 14:21:35 10° WNW 14:43:19 31° N 15:00:40 10° NE visible
05 Dec - 17:02:02 10° NW 17:21:04 35° NNE 17:32:19 10° ENE visible
05 Dec - 19:36:32 10° NW 19:51:57 77° NNE 19:59:31 10° ESE daylight
05 Dec - 22:11:31 10° W 22:16:59 18° SW 22:21:00 10° S daylight
06 Dec - 05:44:51 10° SSE 05:48:36 12° SE 05:53:04 10° ESE daylight
06 Dec - 08:03:08 10° SW 08:15:49 60° SE 08:38:42 10° ENE visible
06 Dec - 10:29:25 10° WSW 10:47:22 63° NNW 11:13:37 10° NE visible
06 Dec - 13:03:34 10° WNW 13:25:16 35° NNW 13:46:16 10° NE visible
06 Dec - 15:44:25 10° NW 16:05:12 31° N 16:19:05 10° ENE visible
06 Dec - 18:20:59 10° NW 18:39:11 53° NNE 18:48:29 10° ESE daylight
06 Dec - 20:55:02 10° WNW 21:06:20 43° SW 21:12:34 10° SSE daylight
07 Dec - 06:53:22 10° SSW 07:03:21 36° SE 07:20:34 10° ENE visible
07 Dec - 09:17:07 10° WSW 09:32:11 82° NW 09:58:04 10° NE visible
07 Dec - 11:47:25 10° W 12:07:32 43° NNW 12:31:28 10° NE visible
07 Dec - 14:26:08 10° WNW 14:47:53 31° N 15:04:56 10° NE visible
07 Dec - 17:04:47 10° NW 17:25:05 42° NNE 17:36:33 10° E visible
07 Dec - 19:39:16 10° NW 19:55:04 81° SW 20:02:47 10° SE daylight
07 Dec - 22:17:41 10° WSW 22:19:48 11° SW 22:21:40 10° SSW daylight
08 Dec - 05:45:16 10° S 05:51:31 17° SE 06:00:16 10° E daylight
08 Dec - 08:05:59 10° SW 08:18:23 73° SE 08:41:42 10° ENE visible
08 Dec - 10:33:09 10° W 10:50:44 53° NNW 11:16:16 10° NE visible
08 Dec - 13:08:16 10° WNW 13:29:41 33° N 13:50:05 10° NE visible
08 Dec - 15:47:49 10° NW 16:09:31 35° NNE 16:23:34 10° ENE visible
08 Dec - 18:23:27 10° NW 18:42:38 68° NNE 18:52:08 10° ESE daylight
08 Dec - 20:58:47 10° WNW 21:09:02 31° SW 21:15:07 10° SSE daylight
09 Dec - 06:55:52 10° SSW 07:05:52 46° SE 07:24:21 10° ENE visible
09 Dec - 09:20:29 10° WSW 09:35:13 69° NNW 10:00:37 10° NE visible
09 Dec - 11:51:49 10° WNW 12:11:34 38° NNW 12:34:43 10° NE visible
09 Dec - 14:30:17 10° NW 14:52:27 32° N 15:09:25 10° ENE visible
09 Dec - 17:07:21 10° NW 17:28:52 50° NNE 17:40:34 10° E visible
09 Dec - 19:42:14 10° WNW 19:57:56 61° SW 20:05:49 10° SE daylight
10 Dec - 05:46:57 10° S 05:54:13 24° SE 06:05:38 10° E daylight
10 Dec - 08:09:01 10° SW 08:21:08 88° SE 08:44:27 10° NE visible
10 Dec - 10:37:09 10° W 10:54:23 46° NNW 11:19:03 10° NE visible
10 Dec - 13:12:52 10° WNW 13:34:16 32° N 13:54:13 10° NE visible
10 Dec - 15:50:51 10° NW 16:13:37 41° NNE 16:27:55 10° E visible
10 Dec - 18:26:00 10° NW 18:45:50 85° NE 18:55:31 10° ESE daylight
10 Dec - 21:03:10 10° W 21:11:40 22° SW 21:17:19 10° S daylight
11 Dec - 06:58:34 10° SW 07:08:26 59° SE 07:27:41 10° ENE visible
11 Dec - 09:24:05 10° WSW 09:38:32 58° NNW 10:03:10 10° NE visible
11 Dec - 11:56:23 10° WNW 12:15:53 34° N 12:38:18 10° NE visible
11 Dec - 14:34:03 10° NW 14:56:54 35° N 15:13:58 10° ENE visible
11 Dec - 17:09:50 10° NW 17:32:23 62° NNE 17:44:19 10° ESE visible
11 Dec - 19:45:30 10° WNW 20:00:37 46° SW 20:08:37 10° SSE daylight
12 Dec - 05:49:09 10° SSW 05:56:49 32° SE 06:10:04 10° ENE daylight
12 Dec - 08:12:17 10° WSW 08:24:07 77° NW 08:47:03 10° NE visible
12 Dec - 10:41:25 10° W 10:58:19 40° NNW 11:22:03 10° NE visible
12 Dec - 13:17:13 10° NW 13:38:54 32° N 13:58:39 10° ENE visible
12 Dec - 15:53:38 10° NW 16:17:29 48° NNE 16:32:02 10° E visible
12 Dec - 18:28:42 10° WNW 18:48:46 77° SW 18:58:41 10° SE daylight
12 Dec - 21:08:34 10° W 21:14:23 15° SW 21:18:49 10° SSW daylight
13 Dec - 04:41:54 10° SSE 04:45:40 13° SE 04:50:24 10° ESE daylight
13 Dec - 07:01:31 10° SW 07:11:09 75° SE 07:30:39 10° ENE visible
13 Dec - 09:27:56 10° W 09:42:06 48° NNW 10:05:45 10° NE visible
13 Dec - 12:00:59 10° WNW 12:20:25 33° N 12:42:16 10° NE visible
13 Dec - 14:37:23 10° NW 15:01:07 39° NNE 15:18:25 10° E visible
13 Dec - 17:12:20 10° NW 17:35:38 75° NNE 17:47:50 10° ESE visible
13 Dec - 19:49:13 10° WNW 20:03:12 34° SW 20:11:10 10° SSE daylight
